Location: Batang Balui
(2.7000°N, 113.7833°E)
Time: 05:38:44
(UTC+00:00)

NOSS 3-4 (A) - Pass Details

Date: 08 February 2023
Orbit: 835 x 1377 km, 63.4° (Epoch: 24 March)

Event Time Altitude Azimuth Distance (km) Brightness Sun altitude
Rises 21:30:04 0° 199° (SSW) 3,558 6.4 -17.4°
Reaches altitude 10° 21:32:41 10° 196° (SSW) 2,557 5.7 -16.7°
Maximum altitude 21:38:28 69° 113° (ESE) 902 3.5 -15.3°
Drops below altitude 10° 21:43:59 10° 30° (NNE) 2,435 5.8 -14.0°
Sets 21:46:25 0° 28° (NNE) 3,375 6.5 -13.4°
